Showing default

ORBCOMM FM 109, 40086

Orbit data source: Space-Track

ORBCOMM FM 109, 40086 is a payload satellite owned by Orbcomm (US) in LEO that was launched on Mon, 14 Jul 2014 UTC via an FALCON 9 launch vehicle from the Air Force Eastern Test Range (AFETR). Payloads include a variety of satellites, spacecraft, and rockets equipped with specific instruments for various scientific and technological missions. These include communications satellites like Starlink; space stations such as the ISS; scientific satellites like the Hubble; Earth observation satellites from companies like Planet Labs, Umbra, and HawkEye 360; GPS; miniature CubeSats for education and research; and military/defense satellites.

Loading next visibility...
ORBCOMM FM 109 details
Identifier
40086, 2014-040A
Orbit
LEO
Last TLE update9 hours ago
Origin
Flag of USOrbcomm (US / ORB)
ManufacturerSNC Louisville
MissionOperational Commercial Communications
Bus & MotorSN-100A, Unknown motor
Mass172 kg wet, 158 kg dry
Launch date (UTC)
2014-07-14 (10 years ago)
Launch vehicle
FALCON 9
Launch site
Air Force Eastern Test Range (AFETR)
Object type
Payload
Rocket body
Debris
Shape & HBRBox + 1 Pan + 1 Ant, 13 m
Radar Cross Section2.222 m², Medium (>0.1 m² and < 1m²)

Expand to show TLE details & history

TLE from 9 hours ago
0 ORBCOMM FM 109
1 40086U 14040A   24361.28238284  .00002505  00000-0  58226-3 0  9998
2 40086  47.0022 112.5705 0002718 263.1128  96.9448 14.57525383555836
Epoch: 2024-12-26T06:46Z
Definitive object data (Epoch: 2024-12-26T06:46:37.877Z)
Latitude-0.00002°
Longitude-84.35135°
Altitude701.624 km
Speed7.506 km/s
True Right ascension07h 30m 16s
True Declination0° 00' 00"
Sunlit
Object was in full shadow at TLE epoch
Visualization TLE readout
Latitude22.81059°
Longitude70.93975°
Altitude702.096 km
Speed7.508 km/s
Apparent Right ascension21h 05m 52s
Apparent Declination-17° 01' 01"
Sunlit
Object is in daylight
Visualization observer readout
Local Sidereal Time15:02:49
Azimuth102.749° ESE
Elevation-11.391°
Doppler factor1
Orbital elements
Apogee altitude704.334 km
Perigee altitude700.485 km
Semi-major axis7,080.547 km
Eccentricity0.0002718
Inclination47.0022°
RAAN112.5705°
Arg. of periapsis263.1128°
True anomaly96.97572°
Mean anomaly96.9448°
Eccentric anomaly96.96026°
Mean motion3.64286 °/min
BSTAR0.00058226
Orbital period98.82 mins
Loading maneuver chart data...
Loading historical data...
Loading historical data...
Loading historical data...
Loading historical data...
Loading historical data...
Loading historical data...
Loading historical data...

ORBCOMM FM 109 Visibility forecast

Observer location: undefined°, undefined

Span
Click to sort rows by Start time (UTC) header in descending order
Start Az.
Max El. time (UTC)
Max El. Az.
Max El.
End time (UTC)
End Az.
9 mins2024-12-26 17:08:47.156Z291.025° WNW2024-12-26 17:12:47.156Z233.862° WSW39.369°2024-12-26 17:17:47.156Z138.011° SSE
5 mins2024-12-27 09:15:47.156Z168.401° S2024-12-27 09:17:47.156Z140.375° SSE18.355°2024-12-27 09:20:47.156Z97.535° ESE
8 mins2024-12-27 10:57:47.156Z237.09° WSW2024-12-27 11:00:47.156Z219.936° SW43.942°2024-12-27 11:05:47.156Z62.865° ENE
8 mins2024-12-27 12:41:47.156Z286.382° WNW2024-12-27 12:44:47.156Z338.392° N32.918°2024-12-27 12:49:47.156Z59.581° ENE
8 mins2024-12-27 14:25:47.156Z305.284° NW2024-12-27 14:29:47.156Z19.904° NNE32.398°2024-12-27 14:33:47.156Z77.869° E
|